DECAYED
Showing default

AISTECHSAT-3, 44103 (Decayed)

Orbit data source: Space-Track

AISTECHSAT-3, 44103 was a payload satellite owned by AISTech (ES) in LEO that was launched on Mon, 01 Apr 2019 UTC via a PSLV-QL launch vehicle from the Sirharikota (SRI). Payload-class satellites include a variety of spacecraft equipped with specific instruments for various scientific and technological missions. These include communications satellites like Starlink; space stations such as the ISS; scientific satellites like the Hubble; Earth observation satellites from companies like Planet Labs, Umbra, and HawkEye 360; GPS; miniature CubeSats for education and research; and military/defense satellites.

Loading next visibility...
Identifier
44103, 2019-018AB
Orbit
Decayed
Country
Flag of ESES / SPN
Related business
Manufacturer
AISTech
Mission
Decayed Commercial Communications
Bus & Motor
CUBESAT 2U, Unknown motor
Mass
2.3 kg wet, 2.3 kg dry
Launch date (UTC)
2019-04-01 (6 years ago)
Launch vehicle
PSLV-QL
Launch site
Sirharikota (SRI)
Object type
Payload
Rocket body
Debris
Shape & HBR
Box, 0.1 m
Radar Cross Section
0.040 m², Small (<0.1 m²)

Expand to show TLE details & history
Last TLE update: 1 year ago

TLE from 1 year ago
0 AISTECHSAT-3
1 44103U 19018AB  24110.23946520  .15151224  24602-5  24815-3 0  9993
2 44103  97.1722 178.6502 0011750 259.7908 100.2071 16.47479668282343
Epoch: 2024-04-19T05:44Z
TLE epoch observation values (Epoch: 2024-04-19T05:44:49.793Z)
Latitude
-0.00002°
Longitude
-115.38149°
Altitude
150.616 km
Speed
7.815 km/s
True Right ascension
11h 54m 36s
True Declination
0° 00' 00"
Sunlit
Object was in full shadow at epoch
Visualization orbit readout
Latitude
Unknown
Longitude
Unknown
Altitude
Unknown
Speed
Unknown
Apparent Right ascension
Unknown
Apparent Declination
Unknown
Sunlit
N/A
Visualization observer readout
Local Sidereal Time
19:55:16
Azimuth
Unknown
Elevation
Unknown
Doppler factor
Unknown
Orbital elements
Apogee altitude
150.431 km
Perigee altitude
135.107 km
Semi-major axis
6,520.906 km
Eccentricity
0.00118
Inclination
97.1722°
RAAN
178.6502°
Arg. of periapsis
259.7908°
True anomaly
100.33958°
Mean anomaly
100.2071°
Eccentric anomaly
100.27334°
Mean motion
4.12175 °/min
Orbital period
87.34 mins
BSTAR
0.00024815
Loading maneuver chart data...
Computing Atmospheric mass density...

Documentation

Showing up to 5 results
|